sat.trackr.live / text

‹ back to catalog

STARLINK-33902

NORAD 65920 · 2025-225L

PAYLOAD ACTIVE UNKNOWN

§ Identity

Operator
Country
US
Launch date
2025-10-08
Launch site
AFWTR
Launch vehicle
Mass (kg)
RCS (m²)

Purposes: comms

External: N2YO · Heavens-Above · Gunter

§ Orbital elements

Epoch: 2026-09-20T12:38:04.746912Z

Period
93.85 min
Inclination
53.1611°
Eccentricity
0.0001387
Mean motion
15.34410058 rev/d
Perigee alt
461.7 km
Apogee alt
463.6 km
Semi-major
6,840.8 km
B*
4.8288e-4
RAAN
337.4833°
Arg perigee
56.5738°
Mean anomaly
303.5397°
Rev number
5,428

§ Raw data

STARLINK-339021 65920U 25225L   26263.52644383  .00015978  00000+0  48288-3 0  99942 65920  53.1611 337.4833 0001387  56.5738 303.5397 15.34410058 54285

JSON: /api/v1/satellites/65920 · /tle

For live sub-satellite position, see the globe view (requires WebGL).

§ Visibility from observer

Set your observer location to see the next 7 days of passes ≥ 10°. The values pass through the URL so the page stays shareable.

No JS? Fill the form by hand. The geolocation button needs JavaScript.